x

East Scotia Slope (44137) Wave Buoy

10:00pm - Thu 24th Jul 2014 All times are EDT. -4 hours from GMT.

  • Sig Wave height 3.9ft
  • Peak Period 5s
  • Wind
    18mph, 22mph gusts
  • Sea Temp 73°f
  • Air Temp 72°f
  • Sea Pressure 1010.3mb
  • East Scotia Slope
  • East Scotia Slope

More Historic Weather Station data

Upgrade to MSW Pro to gain access to the past 30 days of data for over 8000 Wavebouys and Weather Stations around the globe.

Join Pro

Comparision Forecast

View Surf forecast
   
Thu 07/24 10:00pm 4ft 5s 18 22 mph 1010.3mb 73f 72f
9:00pm 4ft  -  18 20 mph 1009.8mb 73f 74f
8:00pm 3.5ft  -  18 22 mph 1009.5mb 73f 74f
7:00pm 3.5ft 6s 20 22 mph 1009.2mb 73f 74f
6:00pm 3.5ft  -  16 20 mph 1009.4mb 73f 74f
5:00pm 4ft 7s 16 20 mph 1009.7mb 73f 74f
4:00pm 4ft  -  18 20 mph 1010.2mb 73f 74f
3:00pm 4ft 5s 18 20 mph 1010.6mb 73f 74f
2:00pm 3.5ft 5s 13 16 mph 1011mb 73f 74f
1:00pm 3.5ft 5s 16 18 mph 1011.3mb 73f 74f
12:00pm 3.5ft 5s 18 20 mph 1011.5mb 73f 74f
11:00am 3ft  -  18 20 mph 1012mb 73f 74f
10:00am 3ft 6s 16 18 mph 1012.3mb 73f 74f
9:00am 3ft 5s 16 18 mph 1012.6mb 73f 74f
8:00am 3ft 6s 16 18 mph 1012.8mb 73f 74f
7:00am 3.5ft 5s 13 18 mph 1012.7mb 73f 73f
6:00am 3.5ft 5s 16 20 mph 1012.8mb 73f 73f
5:00am 3.5ft 6s 16 18 mph 1012.6mb 73f 73f
4:00am 3.5ft  -  16 18 mph 1013mb 73f 73f
3:00am 3.5ft 5s 18 20 mph 1013.2mb 73f 73f
2:00am 3.5ft 5s 16 20 mph 1013.4mb 73f 73f
1:00am 3.5ft 5s 16 18 mph 1014.1mb 74f 73f
12:00am 3.5ft 8s 16 18 mph 1014.5mb 74f 73f
Wed 07/23 11:00pm 3.5ft 7s 16 20 mph 1014.7mb 74f 73f
10:00pm 3.5ft 4s 18 22 mph 1014.8mb 74f 73f
9:00pm 3.5ft 8s 18 22 mph 1014.9mb 73f 73f
8:00pm 3ft 4s 18 20 mph 1014.8mb 73f 73f
7:00pm 3ft 7s 18 20 mph 1014.5mb 74f 74f
6:00pm 3.5ft 7s 16 18 mph 1014.5mb 74f 74f
5:00pm 3.5ft 7s 16 18 mph 1014.7mb 74f 74f
4:00pm 3.5ft 7s 16 18 mph 1015mb 74f 74f
3:00pm 3.5ft 4s 16 18 mph 1015.7mb 74f 73f
2:00pm 3.5ft  -  18 20 mph 1016.1mb 74f 73f
1:00pm 3ft 7s 18 20 mph 1016.3mb 74f 73f
12:00pm 3.5ft 7s 16 20 mph 1016.3mb 74f 72f
11:00am 3ft 8s 16 18 mph 1016.8mb 73f 72f
10:00am 3ft 8s 13 18 mph 1017.2mb 73f 72f
9:00am 2.5ft 8s 11 13 mph 1017mb 73f 71f
8:00am 3ft 8s 11 13 mph 1017.4mb 73f 71f
7:00am 3ft 7s 11 13 mph 1017.4mb 74f 71f
6:00am 2.5ft 8s 11 13 mph 1017.3mb 74f 70f
5:00am 2.5ft 7s 7 9 mph 1017.4mb 74f 70f
4:00am 3ft 8s 9 11 mph 1017.3mb 74f 70f
3:00am 3.5ft 7s 9 11 mph 1017.7mb 74f 69f
2:00am 3.5ft 7s 9 13 mph 1018.2mb 74f 69f
1:00am 3.5ft 8s 13 16 mph 1018.8mb 74f 68f
12:00am 3.5ft 8s 9 11 mph 1019.1mb 74f 69f
Tue 07/22 11:00pm 3.5ft 8s 9 11 mph 1018.8mb 74f 69f
10:00pm 3.5ft 7s 7 11 mph 1018.8mb 74f 69f
9:00pm 3.5ft 8s 4 7 mph 1018.8mb 74f 69f
8:00pm 3.5ft 8s 2 4 mph 1018.9mb 74f 68f
7:00pm 3.5ft 8s 4 7 mph 1018.6mb 75f 68f
6:00pm 4ft 8s 2 4 mph 1018.9mb 75f 69f
5:00pm 4ft 8s 2 4 mph 1018.8mb 75f 69f
4:00pm 4.5ft 8s 4 9 mph 1019.4mb 75f 68f
3:00pm 4.5ft 7s 4 7 mph 1019.6mb 75f 68f
2:00pm 4.5ft 8s 9 11 mph 1020.2mb 74f 67f
1:00pm 4ft 8s 9 11 mph 1020.4mb 74f 67f
12:00pm 4ft 8s 9 11 mph 1020.5mb 74f 67f
11:00am 4.5ft 8s 9 11 mph 1020.1mb 74f 68f
10:00am 4.5ft 8s 9 11 mph 1020.4mb 74f 68f
9:00am 4.5ft 8s 7 9 mph 1020.3mb 73f 68f
8:00am 4.5ft 8s 7 9 mph 1020.5mb 73f 68f
7:00am 4ft 8s 9 11 mph 1020.2mb 73f 69f
6:00am 4ft 8s 9 11 mph 1020mb 73f 69f
5:00am 5ft 8s 9 11 mph 1019.5mb 73f 70f
4:00am 5ft 8s 9 11 mph 1019.5mb 73f 70f
3:00am 5ft 8s 7 9 mph 1019.3mb 74f 70f
2:00am 5ft 8s 7 9 mph 1019.3mb 73f 70f
1:00am 5ft 8s 7 9 mph 1019.6mb 73f 71f
12:00am 4.5ft 8s 4 7 mph 1019.7mb 73f 71f
Mon 07/21 11:00pm 5ft 8s 9
mph
1019.6mb 73f 71f
10:00pm 5ft 8s 9 11 mph 1020mb 73f 71f
9:00pm 5ft 8s 11 13 mph 1020mb 73f 71f
8:00pm 5ft 8s 13 16 mph 1019.3mb 73f 71f
7:00pm 5ft 7s 16 18 mph 1019.1mb 73f 71f
6:00pm 5.5ft 7s 16 18 mph 1018.9mb 73f 72f
5:00pm 6ft 7s 16 18 mph 1018.8mb 73f 72f
4:00pm 6ft 8s 18 20 mph 1018.6mb 73f 72f
3:00pm 6ft 7s 18 20 mph 1018.6mb 73f 72f
2:00pm 6ft 8s 16 18 mph 1019.3mb 73f 73f
1:00pm 6ft 7s 16 18 mph 1019.4mb 73f 73f
12:00pm 6.5ft 7s 13 18 mph 1019.5mb 73f 73f
11:00am 6ft 7s 18 20 mph 1019.6mb 73f 73f
10:00am 6ft 6s 18 22 mph 1019.6mb 73f 73f
9:00am 6ft 7s 18 22 mph 1019.5mb 73f 73f
8:00am 6ft 7s 18 22 mph 1019mb 72f 73f
7:00am 5.5ft 7s 22 25 mph 1018.5mb 72f 72f
6:00am 5ft 7s 18 22 mph 1019mb 72f 72f
5:00am 5.5ft 6s 20 25 mph 1019mb 72f 72f
4:00am 5.5ft 6s 20 22 mph 1019mb 72f 72f